timestamp,wind_dir_avg,wind_spd_avg,wind_spd_max_dir,wind_spd_gust,battery_voltage,lat,long
2022-06-27 00:04:00+00:00,214.0,6.71,223.0,8.4,13.13,47.59359,-54.27349
2022-06-27 00:14:00+00:00,207.0,7.4,214.0,8.97,12.65,47.59359,-54.27349
2022-06-27 00:24:00+00:00,207.0,7.96,206.0,8.62,12.65,47.59359,-54.27349
2022-06-27 00:34:00+00:00,205.0,6.86,210.0,7.67,12.65,47.59359,-54.27349
2022-06-27 00:44:00+00:00,199.0,6.42,206.0,7.61,12.65,47.59359,-54.27349
2022-06-27 00:54:00+00:00,211.0,5.86,211.0,6.73,12.65,47.59359,-54.27349
2022-06-27 01:04:00+00:00,203.0,5.81,208.0,6.61,12.65,47.59359,-54.27349
2022-06-27 01:14:01+00:00,209.0,6.33,208.0,6.9,12.41,47.59359,-54.27349
2022-06-27 01:24:01+00:00,208.0,7.07,208.0,7.72,12.41,47.59359,-54.27349
2022-06-27 01:34:01+00:00,203.0,5.98,206.0,6.44,12.41,47.59359,-54.27349
2022-06-27 01:44:01+00:00,188.0,4.29,189.0,4.52,12.41,47.59359,-54.27349
2022-06-27 01:54:01+00:00,185.0,3.29,196.0,3.89,12.41,47.59359,-54.27349
2022-06-27 02:04:01+00:00,197.0,3.95,215.0,5.0,12.41,47.59359,-54.27349
2022-06-27 02:14:01+00:00,188.0,3.8,154.0,4.62,12.49,47.59359,-54.27349
2022-06-27 02:24:01+00:00,216.0,5.17,216.0,5.49,12.49,47.59359,-54.27349
2022-06-27 02:34:01+00:00,210.0,4.74,213.0,5.23,12.49,47.59359,-54.27349
2022-06-27 02:44:01+00:00,212.0,5.52,213.0,5.86,12.49,47.59359,-54.27349
2022-06-27 02:54:01+00:00,213.0,5.63,215.0,6.01,12.49,47.59359,-54.27349
2022-06-27 03:04:01+00:00,213.0,6.59,213.0,7.07,12.49,47.59359,-54.27349
2022-06-27 03:14:00+00:00,214.0,6.35,213.0,7.04,12.41,47.59359,-54.27349
2022-06-27 03:24:00+00:00,212.0,5.98,222.0,6.96,12.41,47.59359,-54.27349
2022-06-27 03:34:00+00:00,207.0,5.46,212.0,5.96,12.41,47.59359,-54.27349
2022-06-27 03:44:00+00:00,212.0,5.72,211.0,6.43,12.41,47.59359,-54.27349
2022-06-27 03:54:00+00:00,210.0,5.28,210.0,5.7,12.41,47.59359,-54.27349
2022-06-27 04:04:00+00:00,211.0,5.06,211.0,5.45,12.41,47.59359,-54.27349
2022-06-27 04:14:00+00:00,214.0,5.12,222.0,5.53,12.41,47.59359,-54.27349
2022-06-27 04:24:00+00:00,218.0,5.38,216.0,5.86,12.41,47.59359,-54.27349
2022-06-27 04:34:00+00:00,223.0,5.19,221.0,5.53,12.41,47.59359,-54.27349
2022-06-27 04:44:00+00:00,215.0,4.75,215.0,5.09,12.41,47.59359,-54.27349
2022-06-27 04:54:00+00:00,202.0,4.57,213.0,4.92,12.41,47.59359,-54.27349
2022-06-27 05:04:00+00:00,203.0,4.66,205.0,5.46,12.41,47.59359,-54.27349
2022-06-27 05:14:00+00:00,188.0,4.49,186.0,5.06,12.41,47.59359,-54.27349
2022-06-27 05:24:00+00:00,223.0,4.39,222.0,4.83,12.41,47.59359,-54.27349
2022-06-27 05:34:00+00:00,237.0,7.18,246.0,9.96,12.41,47.59359,-54.27349
2022-06-27 05:44:00+00:00,235.0,6.03,248.0,9.8,12.41,47.59359,-54.27349
2022-06-27 05:54:00+00:00,228.0,5.3,227.0,6.08,12.41,47.59359,-54.27349
2022-06-27 06:04:00+00:00,222.0,4.66,219.0,5.11,12.41,47.59359,-54.27349
2022-06-27 06:14:01+00:00,210.0,5.61,211.0,6.38,12.41,47.59359,-54.27349
2022-06-27 06:24:01+00:00,315.0,0.01,213.0,0.0,12.41,47.59359,-54.27349
2022-06-27 06:34:01+00:00,315.0,0.01,213.0,0.0,12.41,47.59359,-54.27349
2022-06-27 06:44:01+00:00,315.0,0.01,213.0,0.0,12.41,47.59359,-54.27349
2022-06-27 06:54:01+00:00,315.0,0.01,213.0,0.0,12.41,47.59359,-54.27349
2022-06-27 07:04:01+00:00,315.0,0.01,213.0,0.0,12.41,47.59359,-54.27349
2022-06-27 07:14:00+00:00,315.0,0.01,200.0,0.0,12.33,47.59359,-54.27349
2022-06-27 07:24:00+00:00,315.0,0.01,200.0,0.0,12.33,47.59359,-54.27349
2022-06-27 07:34:00+00:00,315.0,0.01,200.0,0.0,12.33,47.59359,-54.27349
2022-06-27 07:44:00+00:00,315.0,0.01,200.0,0.0,12.33,47.59359,-54.27349
2022-06-27 07:54:00+00:00,315.0,0.01,233.0,0.0,12.33,47.59359,-54.27349
2022-06-27 08:04:00+00:00,315.0,0.01,224.0,0.0,12.33,47.59359,-54.27349
2022-06-27 08:14:00+00:00,315.0,0.01,224.0,0.0,12.41,47.59359,-54.27349
2022-06-27 08:24:00+00:00,315.0,0.01,224.0,0.0,12.41,47.59359,-54.27349
2022-06-27 08:34:00+00:00,315.0,0.01,224.0,0.0,12.41,47.59359,-54.27349
2022-06-27 08:44:00+00:00,315.0,0.01,224.0,0.0,12.41,47.59359,-54.27349
2022-06-27 08:54:00+00:00,315.0,0.01,224.0,0.0,12.41,47.59359,-54.27349
2022-06-27 09:04:00+00:00,315.0,0.01,224.0,0.0,12.41,47.59359,-54.27349
2022-06-27 09:14:00+00:00,315.0,0.01,224.0,0.0,12.41,47.59359,-54.27349
2022-06-27 09:24:00+00:00,315.0,0.01,224.0,0.0,12.41,47.59359,-54.27349
2022-06-27 09:34:00+00:00,315.0,0.01,224.0,0.0,12.41,47.59359,-54.27349
2022-06-27 09:44:00+00:00,315.0,0.01,224.0,0.0,12.41,47.59359,-54.27349
2022-06-27 09:54:00+00:00,315.0,0.01,224.0,0.0,12.41,47.59359,-54.27349
2022-06-27 10:04:00+00:00,315.0,0.01,224.0,0.0,12.41,47.59359,-54.27349
2022-06-27 10:14:00+00:00,315.0,0.01,224.0,0.0,13.44,47.59359,-54.27349
2022-06-27 10:24:00+00:00,315.0,0.01,224.0,0.0,13.44,47.59359,-54.27349
2022-06-27 10:34:00+00:00,199.0,5.77,200.0,5.78,13.44,47.59359,-54.27349
2022-06-27 10:44:00+00:00,315.0,0.01,202.0,0.0,13.44,47.59359,-54.27349
2022-06-27 10:54:00+00:00,201.0,5.68,201.0,5.73,13.44,47.59359,-54.27349
2022-06-27 11:04:00+00:00,315.0,0.01,202.0,0.0,13.44,47.59359,-54.27349
2022-06-27 11:14:00+00:00,315.0,0.01,202.0,0.0,13.6,47.59359,-54.27349
2022-06-27 11:24:00+00:00,315.0,0.01,219.0,0.0,13.6,47.59359,-54.27349
2022-06-27 11:34:00+00:00,315.0,0.01,219.0,0.0,13.6,47.59359,-54.27349
2022-06-27 11:44:00+00:00,315.0,0.01,219.0,0.0,13.6,47.59359,-54.27349
2022-06-27 11:54:00+00:00,315.0,0.01,219.0,0.0,13.6,47.59359,-54.27349
2022-06-27 12:04:00+00:00,315.0,0.01,198.0,0.0,13.6,47.59359,-54.27349
2022-06-27 12:14:00+00:00,212.0,9.3,212.0,9.61,13.84,47.59359,-54.27349
2022-06-27 12:24:00+00:00,315.0,0.01,214.0,0.0,13.84,47.59359,-54.27349
2022-06-27 12:34:00+00:00,315.0,0.01,214.0,0.0,13.84,47.59359,-54.27349
2022-06-27 12:44:00+00:00,315.0,0.01,217.0,0.0,13.84,47.59359,-54.27349
2022-06-27 12:54:00+00:00,315.0,0.01,214.0,0.0,13.84,47.59359,-54.27349
2022-06-27 13:04:00+00:00,315.0,0.01,214.0,0.0,13.84,47.59359,-54.27349
2022-06-27 13:14:01+00:00,315.0,0.01,214.0,0.0,14.24,47.59359,-54.27349
2022-06-27 13:24:01+00:00,315.0,0.01,198.0,0.0,14.24,47.59359,-54.27349
2022-06-27 13:34:01+00:00,212.0,9.03,214.0,9.29,14.24,47.59359,-54.27349
2022-06-27 13:44:01+00:00,195.0,8.12,196.0,8.12,14.24,47.59359,-54.27349
2022-06-27 13:54:01+00:00,315.0,0.01,195.0,0.0,14.24,47.59359,-54.27349
2022-06-27 14:04:01+00:00,212.0,10.07,213.0,10.24,14.24,47.59359,-54.27349
2022-06-27 14:14:01+00:00,213.0,9.71,212.0,10.37,14.24,47.59359,-54.27349
2022-06-27 14:24:01+00:00,211.0,10.45,208.0,11.19,14.24,47.59359,-54.27349
2022-06-27 14:34:01+00:00,214.0,9.26,213.0,10.0,14.24,47.59359,-54.27349
2022-06-27 14:44:01+00:00,224.0,7.46,223.0,7.51,14.24,47.59359,-54.27349
2022-06-27 14:54:01+00:00,219.0,8.98,231.0,11.04,14.24,47.59359,-54.27349
2022-06-27 15:04:01+00:00,218.0,9.03,222.0,10.36,14.24,47.59359,-54.27349
2022-06-27 15:14:00+00:00,218.0,9.62,229.0,11.14,13.68,47.59359,-54.27349
2022-06-27 15:24:00+00:00,212.0,9.91,211.0,10.34,13.68,47.59359,-54.27349
2022-06-27 15:34:00+00:00,217.0,8.76,219.0,9.89,13.68,47.59359,-54.27349
2022-06-27 15:44:00+00:00,223.0,7.54,224.0,7.8,13.68,47.59359,-54.27349
2022-06-27 15:54:00+00:00,215.0,6.34,216.0,6.35,13.68,47.59359,-54.27349
2022-06-27 16:04:00+00:00,315.0,0.01,220.0,0.0,13.68,47.59359,-54.27349
2022-06-27 16:14:00+00:00,315.0,0.01,220.0,0.0,14.24,47.59359,-54.27349
2022-06-27 16:24:00+00:00,315.0,0.01,220.0,0.0,14.24,47.59359,-54.27349
2022-06-27 16:34:00+00:00,198.0,7.17,199.0,7.18,14.24,47.59359,-54.27349
2022-06-27 16:44:00+00:00,194.0,8.02,195.0,8.02,14.24,47.59359,-54.27349
2022-06-27 16:54:00+00:00,197.0,8.6,195.0,8.95,14.24,47.59359,-54.27349
2022-06-27 17:04:00+00:00,315.0,0.01,211.0,0.0,14.24,47.59359,-54.27349
2022-06-27 17:14:00+00:00,207.0,8.91,208.0,9.61,13.68,47.59359,-54.27349
2022-06-27 17:24:00+00:00,213.0,9.28,218.0,11.47,13.68,47.59359,-54.27349
2022-06-27 17:34:00+00:00,216.0,8.82,232.0,11.28,13.68,47.59359,-54.27349
2022-06-27 17:44:00+00:00,213.0,8.01,220.0,9.83,13.68,47.59359,-54.27349
2022-06-27 17:54:00+00:00,209.0,7.56,214.0,8.49,13.68,47.59359,-54.27349
2022-06-27 18:04:00+00:00,209.0,8.13,218.0,8.7,13.68,47.59359,-54.27349
2022-06-27 18:14:01+00:00,211.0,8.37,212.0,8.38,13.68,47.59359,-54.27349
2022-06-27 18:24:01+00:00,315.0,0.01,199.0,0.0,13.68,47.59359,-54.27349
2022-06-27 18:34:01+00:00,315.0,0.01,199.0,0.0,13.68,47.59359,-54.27349
2022-06-27 18:44:01+00:00,197.0,7.76,197.0,8.55,13.68,47.59359,-54.27349
2022-06-27 18:54:01+00:00,199.0,7.27,198.0,8.14,13.68,47.59359,-54.27349
2022-06-27 19:04:01+00:00,315.0,0.01,197.0,0.0,13.68,47.59359,-54.27349
2022-06-27 19:14:00+00:00,315.0,0.01,197.0,0.0,13.68,47.59359,-54.27349
2022-06-27 19:24:00+00:00,169.0,7.47,173.0,8.76,13.68,47.59359,-54.27349
2022-06-27 19:34:00+00:00,170.0,6.22,186.0,7.05,13.68,47.59359,-54.27349
2022-06-27 19:44:00+00:00,193.0,7.52,203.0,8.35,13.68,47.59359,-54.27349
2022-06-27 19:54:00+00:00,175.0,6.49,203.0,7.5,13.68,47.59359,-54.27349
2022-06-27 20:04:00+00:00,191.0,6.73,204.0,8.22,13.68,47.59359,-54.27349
2022-06-27 20:14:00+00:00,177.0,7.25,197.0,8.65,13.76,47.59359,-54.27349
2022-06-27 20:24:00+00:00,203.0,6.6,201.0,7.7,13.76,47.59359,-54.27349
2022-06-27 20:34:00+00:00,199.0,6.8,201.0,7.86,13.76,47.59359,-54.27349
2022-06-27 20:44:00+00:00,205.0,6.2,207.0,7.03,13.76,47.59359,-54.27349
2022-06-27 20:54:00+00:00,206.0,5.93,208.0,6.9,13.76,47.59359,-54.27349
2022-06-27 21:04:00+00:00,209.0,7.06,210.0,7.77,13.76,47.59359,-54.27349
2022-06-27 21:14:00+00:00,198.0,7.48,203.0,8.27,13.76,47.59359,-54.27349
2022-06-27 21:24:00+00:00,196.0,6.87,204.0,7.76,13.76,47.59359,-54.27349
2022-06-27 21:34:00+00:00,212.0,7.11,223.0,8.92,13.76,47.59359,-54.27349
2022-06-27 21:44:00+00:00,208.0,6.95,209.0,7.91,13.76,47.59359,-54.27349
2022-06-27 21:54:00+00:00,214.0,7.46,217.0,8.59,13.76,47.59359,-54.27349
2022-06-27 22:04:00+00:00,212.0,6.62,212.0,7.33,13.76,47.59359,-54.27349
2022-06-27 22:14:00+00:00,222.0,5.79,215.0,6.46,13.68,47.59359,-54.27349
2022-06-27 22:24:00+00:00,212.0,5.62,210.0,6.04,13.68,47.59359,-54.27349
2022-06-27 22:34:00+00:00,211.0,5.73,210.0,6.21,13.68,47.59359,-54.27349
2022-06-27 22:44:00+00:00,211.0,6.4,212.0,6.93,13.68,47.59359,-54.27349
2022-06-27 22:54:00+00:00,213.0,5.82,214.0,6.45,13.68,47.59359,-54.27349
2022-06-27 23:04:00+00:00,216.0,7.05,216.0,7.72,13.68,47.59359,-54.27349
2022-06-27 23:14:00+00:00,215.0,6.39,214.0,6.85,13.13,47.59359,-54.27349
2022-06-27 23:24:00+00:00,217.0,5.87,218.0,6.45,13.13,47.59359,-54.27349
2022-06-27 23:34:00+00:00,222.0,5.45,223.0,6.08,13.13,47.59359,-54.27349
2022-06-27 23:44:00+00:00,226.0,4.88,227.0,5.52,13.13,47.59359,-54.27349
2022-06-27 23:54:00+00:00,216.0,5.91,215.0,6.28,13.13,47.59359,-54.27349
